Regional Weather Roundup
Issued by NWS Cleveland, OH

Home | Current Version | Previous Version | Graphics & Text | Print | Product List | Glossary On
Versions: 1 2 3 4 5 6 7 8 9 10 11 12 13 14 15 16 17 18 19 20 21 22 23 24 25 26 27 28 29 30 31 32 33 34 35 36 37 38 39 40 41 42 43 44 45 46 47 48 49 50
000
ASUS41 KCLE 051100
RWRCLE
OHIO REGIONAL WEATHER ROUNDUP
NATIONAL WEATHER SERVICE WILMINGTON, OH
700 AM EDT THU MAY 05 2016

NOTE: "FAIR" INDICATES FEW OR NO CLOUDS BELOW 12,000 FEET WITH NO
SIGNIFICANT WEATHER AND/OR OBSTRUCTIONS TO VISIBILITY.

OHZ001>008-015>018-024>027-034-035-043-044-051200-
   NORTHWEST OHIO

CITY           SKY/WX    TMP DP  RH WIND       PRES   REMARKS
DEFIANCE       CLOUDY    46  42  86 N7        29.79R
FINDLAY        LGT RAIN  44  39  82 NW7       29.75R
TOLEDO EXPRESS CLOUDY    45  43  93 N13       29.77R FOG
TOLEDO EXEC    FAIR      48  44  86 N9        29.77R FOG
LIMA           LGT RAIN  41  39  93 W7        29.77R
$$

OHZ009>014-019>023-028>033-038-089-051200-
   NORTHEAST OHIO

CITY           SKY/WX    TMP DP  RH WIND       PRES   REMARKS
CLE-HOPKINS    MOCLDY    48  45  89 N6        29.73R
CLE-LAKEFRONT  LGT RAIN  49  45  86 N12       29.71R
CUY CO. ARPT   CLOUDY    48  46  93 N5        29.71  FOG
LORAIN-ELYRIA  LGT RAIN  47  43  86 N6        29.73R
ASHTABULA      CLOUDY    47  45  93 CALM      29.72R
AKRON-CANTON   CLOUDY    48  45  89 N6        29.70R FOG
WOOSTER        LGT RAIN  46  45  96 N7        29.71R
MANSFIELD      LGT RAIN  43  43 100 W5        29.72R FOG
YOUNGSTOWN     LGT RAIN  48  46  93 N3        29.70R FOG
$$

OHZ042-051>053-060>062-070>072-077>081-051200-
  SOUTHWEST OHIO

CITY           SKY/WX    TMP DP  RH WIND       PRES   REMARKS
CINC-COVINGTON CLOUDY    41  38  89 N7        29.75R
CINC-LUNKEN    CLOUDY    43  40  89 N6        29.78R
HAMILTON       CLOUDY    42  38  85 N8        29.79R
DAYTON         NOT AVBL
WRIGHT-PAT AFB PTCLDY    40  39  95 N7        29.76R
DAYTON GENERAL MOCLDY    39  35  86 N6        29.76R
WILMINGTON     CLOUDY    41  36  82 NW5       29.75R
$$

OHZ036-037-039>041-045>050-054>059-063>069-073>076-082>088-051200-
  CENTRAL AND SOUTHEAST OHIO

CITY           SKY/WX    TMP DP  RH WIND       PRES   REMARKS
COLUMBUS       FAIR      41  37  86 NW7       29.74R
OSU AIRPORT    MOCLDY    42  38  85 NW9       29.74R
BOLTON FIELD   NOT AVBL
RICKENBACK AFB NOT AVBL
NEWARK         CLOUDY    44  38  79 NW5       29.72R
MARION         CLOUDY    43  41  93 NW8       29.74R
LANCASTER      FAIR      37  35  92 CALM      29.74R
ZANESVILLE     CLOUDY    46  41  82 NW6       29.71R
NEW PHILLY     LGT RAIN  48  46  93 NW3       29.71R FOG
$$




USA.gov is the U.S. government's official web portal to all federal, state and local government web resources and services.